TimeCET,TemperatureF,Dew PointF,Humidity,Sea Level PressureIn,VisibilityMPH,Wind Direction,Wind SpeedMPH,Gust SpeedMPH,PrecipitationIn,Events,Conditions,WindDirDegrees,DateUTC
12:55 AM,55.4,42.8,63,29.83,6.2,West,5.8,-,N/A,,Scattered Clouds,280,2012-10-29 23:55:00
1:00 AM,55,43,54,29.83,12,West,5.8,,,,,280,2012-10-30 00:00:00
4:00 AM,56,43,51,29.86,12,WNW,4.6,,,,Partly Cloudy,290,2012-10-30 03:00:00
6:55 AM,55.4,44.6,67,29.83,-9999.0,North,3.5,-,N/A,,Clear,350,2012-10-30 05:55:00
7:00 AM,56,45,57,29.86,6,North,3.5,,,,,350,2012-10-30 06:00:00
7:55 AM,55.4,48.2,77,29.83,-9999.0,Calm,Calm,-,N/A,,Clear,0,2012-10-30 06:55:00
8:55 AM,55.4,48.2,77,29.86,6.2,Calm,Calm,-,N/A,,Scattered Clouds,0,2012-10-30 07:55:00
9:55 AM,55.4,46.4,72,29.89,6.2,East,3.5,-,N/A,,Scattered Clouds,80,2012-10-30 08:55:00
10:00 AM,56,46,61,29.89,12,East,3.5,,,,Partly Cloudy,80,2012-10-30 09:00:00
11:55 AM,59.0,48.2,67,29.89,6.2,East,4.6,-,N/A,,Scattered Clouds,80,2012-10-30 10:55:00
1:00 PM,63,50,52,29.88,12,ENE,3.5,,,,,70,2012-10-30 12:00:00
2:55 PM,60.8,50.0,68,29.86,6.2,Calm,Calm,-,N/A,,Mostly Cloudy,0,2012-10-30 13:55:00
4:00 PM,59,50,64,29.86,12,NNW,3.5,,,,Overcast,340,2012-10-30 15:00:00
4:55 PM,59.0,50.0,72,29.86,6.2,NNW,5.8,-,N/A,,Scattered Clouds,330,2012-10-30 15:55:00
5:55 PM,59.0,50.0,72,29.86,6.2,Calm,Calm,-,N/A,,Scattered Clouds,0,2012-10-30 16:55:00
6:55 PM,60.8,51.8,72,29.86,6.2,ENE,3.5,-,N/A,,Scattered Clouds,60,2012-10-30 17:55:00
7:00 PM,61,53,66,29.86,12,ENE,3.5,,,,Overcast,60,2012-10-30 18:00:00
7:55 PM,60.8,57.2,88,29.86,6.2,Calm,Calm,-,N/A,,Scattered Clouds,0,2012-10-30 18:55:00
8:55 PM,59.0,53.6,82,29.86,6.2,ENE,3.5,-,N/A,,Scattered Clouds,60,2012-10-30 19:55:00
9:55 PM,60.8,55.4,82,29.86,6.2,NW,3.5,-,N/A,,Scattered Clouds,320,2012-10-30 20:55:00
10:00 PM,60,56,82,29.86,6,NW,3.5,,,,Partly Cloudy,320,2012-10-30 21:00:00